This is the latest recevied weather packets stored in our database for station/object N2XP-2. If no packets are shown the sender has not sent any weather packets the latest 1 day(s).
| Time | Temp. | Humidity | Pressure | Rain* | Wind** | Luminosity | Snow |
|---|---|---|---|---|---|---|---|
| 1778030648 | 20.56° C | 67% | 1012 hPa | 0 mm | 2.68 m/s, 229° | - | - |
| 1778030535 | 20.56° C | 64% | 1011.6 hPa | 0 mm | 2.68 m/s, 260° | - | - |
| 1778030524 | 21.11° C | 64% | 1011.6 hPa | 0 mm | 1.34 m/s, 255° | - | - |
| 1778030349 | 20.56° C | 67% | 1011.9 hPa | 0 mm | 2.68 m/s, 218° | - | - |
| 1778030050 | 20.56° C | 66% | 1011.9 hPa | 0 mm | 2.68 m/s, 191° | - | - |
| 1778029446 | 20.56° C | 65% | 1011.6 hPa | 0 mm | 3.13 m/s, 188° | - | - |
| 1778029147 | 20.56° C | 64% | 1011.6 hPa | 0 mm | 2.68 m/s, 260° | - | - |
| 1778028844 | 21.11° C | 64% | 1011.6 hPa | 0 mm | 1.34 m/s, 255° | - | - |
| 1778028610 | 21.11° C | 63% | 1011.4 hPa | 0 mm | 2.24 m/s, 193° | - | - |
| 1778028545 | 21.11° C | 63% | 1011.6 hPa | 0 mm | 2.24 m/s, 221° | - | - |
| 1778028246 | 21.11° C | 63% | 1011.4 hPa | 0 mm | 3.13 m/s, 225° | - | - |
| 1778027527 | 21.11° C | 62% | 1011.4 hPa | 0 mm | 2.24 m/s, 190° | - | - |
| 1778027344 | 21.11° C | 62% | 1011.4 hPa | 0 mm | 1.34 m/s, 195° | - | - |
| 1778027119 | 21.11° C | 62% | 1011.3 hPa | 0 mm | 2.68 m/s, 321° | - | - |
| 1778027041 | 21.11° C | 62% | 1011.3 hPa | 0 mm | 2.68 m/s, 321° | - | - |
| 1778025537 | 21.67° C | 60% | 1011.3 hPa | 0 mm | 2.24 m/s, 243° | - | - |
| 1778024635 | 21.67° C | 59% | 1011.1 hPa | 0 mm | 1.79 m/s, 238° | - | - |
| 1778024332 | 22.22° C | 59% | 1011.1 hPa | 0 mm | 0.89 m/s, 240° | - | - |
| 1778024033 | 22.22° C | 58% | 1011.1 hPa | 0 mm | 1.34 m/s, 293° | - | - |
| 1778023796 | 22.22° C | 58% | 1010.9 hPa | 0 mm | 1.34 m/s, 253° | - | - |
| 1778022832 | 22.78° C | 57% | 1010.7 hPa | 0 mm | 2.24 m/s, 197° | - | - |
| 1778021984 | 23.33° C | 56% | 1010.6 hPa | 0 mm | 1.79 m/s, 186° | - | - |
| 1778021930 | 23.33° C | 56% | 1010.6 hPa | 0 mm | 1.79 m/s, 186° | - | - |
| 1778021628 | 23.33° C | 55% | 1010.6 hPa | 0 mm | 1.79 m/s, 221° | - | - |
| 1778020726 | 23.89° C | 54% | 1010.5 hPa | 0 mm | 2.24 m/s, 229° | - | - |
* Rain latest hour (hover to see other rain measurements)
** Current wind speed in m/s (hover to see current wind gust speed)